Weather History for Murray, KY

Change the Weather History Date:

Thursday, November 7, 2013

  Actual Average (KPAH) Record (KPAH)
Temperature  
Mean Temperature 43 °F 52 °F  
Max Temperature 51 °F 63 °F 81 °F (1999)
Min Temperature 35 °F 41 °F 17 °F (1993)
Degree Days  
Heating Degree Days 22 14  
Month to date heating degree days 88  
Since 1 July heating degree days 355  
Cooling Degree Days 0 0  
Month to date cooling degree days 0  
Year to date cooling degree days 1538  
Moisture  
Dew Point 31 °F    
Average Humidity 69    
Maximum Humidity 100    
Minimum Humidity 37    
Precipitation  
Precipitation 0.00 in 0.12 in 4.90 in (1996)
Month to date precipitation 0.88  
Year to date precipitation 41.07  
Snow  
Snow 0.00 in 0.00 in T in (1992)
Month to date snowfall 0.0  
Since 1 July snowfall 0.1  
Since 1 September snowfall 0.1  
Snow Depth -    
Sea Level Pressure  
Sea Level Pressure 30.33 in    
Wind  
Wind Speed 7 mph (NW)    
Max Wind Speed 10 mph    
Max Gust Speed -    
Visibility 10 miles    
Events      
T = Trace of Precipitation, MM = Missing Value Source: NWS Daily Summary

Daily Weather History Graph

Daily Weather History Graph

Search for Another Location

Airport:

Trip Planner

Search our weather history database for the weather conditions in past years. The results will help you decide how hot, cold, wet, or windy it might be!

Date:

Astronomy

Nov. 07, 2013 Rise Set
Actual Time 6:23 AM CST 4:50 PM CST
Civil Twilight 5:56 AM CST 5:17 PM CST
Nautical Twilight 5:25 AM CST 5:48 PM CST
Astronomical Twilight 4:55 AM CST 6:18 PM CST
Moon 10:30 AM CST (11/7) 9:02 PM CST (11/7)
Length of Visible Light 11h 21m
Length of Day
10h 27m
Waxing Crescent, 23% of the Moon is Illuminated
Nov 7
Waxing Crescent
Nov 9
First Quarter
Nov 17
Full
Nov 25
Last Quarter
Dec 2
New

Hourly Weather History & Observations

Time (CST) Temp. Windchill Dew Point Humidity Pressure Visibility Wind Dir Wind Speed Gust Speed Precip Events Conditions
12:15 AM 41.0 °F 35.2 °F 39.2 °F 93% 30.23 in 10.0 mi North 9.2 mph - N/A   Mostly Cloudy
12:35 AM 41.0 °F 35.8 °F 39.2 °F 93% 30.23 in 10.0 mi NNW 8.1 mph - N/A   Mostly Cloudy
12:55 AM 41.0 °F 35.2 °F 39.2 °F 93% 30.24 in 10.0 mi NNW 9.2 mph - N/A   Clear
1:15 AM 39.2 °F 33.0 °F 37.4 °F 93% 30.24 in 10.0 mi NNW 9.2 mph - N/A   Clear
1:55 AM 39.2 °F 34.2 °F 37.4 °F 93% 30.25 in 10.0 mi NW 6.9 mph - N/A   Clear
2:15 AM 39.2 °F 34.2 °F 37.4 °F 93% 30.25 in 10.0 mi NW 6.9 mph - N/A   Clear
2:35 AM 37.4 °F 32.1 °F 37.4 °F 100% 30.26 in 10.0 mi NW 6.9 mph - N/A   Clear
2:55 AM 37.4 °F 31.4 °F 35.6 °F 93% 30.27 in 10.0 mi NW 8.1 mph - N/A   Clear
3:15 AM 37.4 °F 32.8 °F 35.6 °F 93% 30.26 in 10.0 mi NNW 5.8 mph - N/A   Clear
3:35 AM 37.4 °F 32.1 °F 35.6 °F 93% 30.27 in 10.0 mi NW 6.9 mph - N/A   Clear
3:55 AM 37.4 °F 32.1 °F 35.6 °F 93% 30.27 in 10.0 mi NW 6.9 mph - N/A   Clear
4:15 AM 37.4 °F 31.4 °F 35.6 °F 93% 30.27 in 10.0 mi NNW 8.1 mph - N/A   Clear
4:35 AM 35.6 °F 29.9 °F 35.6 °F 100% 30.28 in 10.0 mi NNW 6.9 mph - N/A   Clear
4:55 AM 35.6 °F 29.9 °F 35.6 °F 100% 30.29 in 10.0 mi NW 6.9 mph - N/A   Clear
5:15 AM 35.6 °F 29.9 °F 35.6 °F 100% 30.30 in 10.0 mi NW 6.9 mph - N/A   Clear
5:35 AM 35.6 °F 30.7 °F 33.8 °F 93% 30.31 in 10.0 mi NW 5.8 mph - N/A   Clear
5:55 AM 35.6 °F 29.9 °F 33.8 °F 93% 30.32 in 10.0 mi NNW 6.9 mph - N/A   Clear
6:15 AM 35.6 °F 29.9 °F 33.8 °F 93% 30.33 in 10.0 mi NW 6.9 mph - N/A   Clear
6:35 AM 35.6 °F 29.9 °F 33.8 °F 93% 30.35 in 9.0 mi NW 6.9 mph - N/A   Clear
6:55 AM 35.6 °F 30.7 °F 33.8 °F 93% 30.36 in 10.0 mi NNW 5.8 mph - N/A   Clear
7:15 AM 35.6 °F 29.9 °F 35.6 °F 100% 30.37 in 10.0 mi NW 6.9 mph - N/A   Clear
7:35 AM 37.4 °F 31.4 °F 35.6 °F 93% 30.37 in 10.0 mi NNW 8.1 mph - N/A   Clear
7:55 AM 37.4 °F 32.1 °F 33.8 °F 87% 30.38 in 10.0 mi North 6.9 mph - N/A   Clear
8:15 AM 39.2 °F 33.6 °F 32.0 °F 75% 30.38 in 10.0 mi NNE 8.1 mph - N/A   Clear
8:35 AM 39.2 °F 34.2 °F 32.0 °F 75% 30.38 in 10.0 mi NNE 6.9 mph - N/A   Clear
8:55 AM 41.0 °F 35.8 °F 32.0 °F 70% 30.38 in 10.0 mi NNE 8.1 mph - N/A   Clear
9:15 AM 41.0 °F 35.2 °F 30.2 °F 65% 30.38 in 10.0 mi NNE 9.2 mph - N/A   Clear
9:35 AM 42.8 °F 37.5 °F 30.2 °F 61% 30.38 in 10.0 mi NNE 9.2 mph - N/A   Clear
9:55 AM 44.6 °F 40.7 °F 28.4 °F 53% 30.38 in 10.0 mi NE 6.9 mph - N/A   Clear
10:15 AM 44.6 °F 39.2 °F 28.4 °F 53% 30.38 in 10.0 mi NNE 10.4 mph - N/A   Clear
10:35 AM 46.4 °F 42.4 °F 28.4 °F 50% 30.38 in 10.0 mi NNE 8.1 mph - N/A   Clear
10:55 AM 46.4 °F 42.4 °F 28.4 °F 50% 30.38 in 10.0 mi North 8.1 mph - N/A   Clear
11:15 AM 46.4 °F 41.5 °F 26.6 °F 46% 30.39 in 10.0 mi NNW 10.4 mph - N/A   Clear
11:35 AM 48.2 °F - 26.6 °F 43% 30.38 in 10.0 mi North 6.9 mph - N/A   Clear
11:55 AM 48.2 °F - 26.6 °F 43% 30.36 in 10.0 mi North 6.9 mph - N/A   Clear
12:15 PM 48.2 °F - 24.8 °F 40% 30.35 in 10.0 mi NNW 9.2 mph - N/A   Clear
12:35 PM 50.0 °F - 24.8 °F 37% 30.34 in 10.0 mi North 5.8 mph - N/A   Clear
12:55 PM 50.0 °F - 26.6 °F 40% 30.34 in 10.0 mi NW 9.2 mph - N/A   Clear
1:15 PM 50.0 °F - 24.8 °F 37% 30.33 in 10.0 mi NW 8.1 mph - N/A   Clear
1:35 PM 50.0 °F - 24.8 °F 37% 30.33 in 10.0 mi NNW 5.8 mph - N/A   Clear
1:55 PM 50.0 °F - 26.6 °F 40% 30.33 in 10.0 mi North 3.5 mph - N/A   Clear
2:15 PM 51.8 °F - 26.6 °F 38% 30.32 in 10.0 mi WNW 4.6 mph - N/A   Clear
2:35 PM 51.8 °F - 26.6 °F 38% 30.31 in 10.0 mi NW 6.9 mph - N/A   Clear
2:55 PM 51.8 °F - 26.6 °F 38% 30.31 in 10.0 mi NW 9.2 mph - N/A   Clear
3:15 PM 51.8 °F - 26.6 °F 38% 30.31 in 10.0 mi NNW 8.1 mph - N/A   Clear
3:35 PM 50.0 °F - 26.6 °F 40% 30.31 in 10.0 mi NW 8.1 mph - N/A   Clear
3:55 PM 50.0 °F - 26.6 °F 40% 30.31 in 10.0 mi NNW 6.9 mph - N/A   Clear
4:55 PM 48.2 °F - 28.4 °F 46% 30.32 in 10.0 mi West 4.6 mph - N/A   Clear
5:15 PM 46.4 °F 45.2 °F 28.4 °F 50% 30.32 in 10.0 mi West 3.5 mph - N/A   Clear
5:35 PM 42.8 °F 40.1 °F 30.2 °F 61% 30.32 in 10.0 mi West 4.6 mph - N/A   Clear
5:55 PM 42.8 °F 40.1 °F 30.2 °F 61% 30.33 in 10.0 mi West 4.6 mph - N/A   Clear
6:15 PM 41.0 °F 39.0 °F 30.2 °F 65% 30.33 in 10.0 mi West 3.5 mph - N/A   Clear
6:35 PM 41.0 °F 39.0 °F 30.2 °F 65% 30.33 in 10.0 mi West 3.5 mph - N/A   Clear
6:55 PM 41.0 °F 38.0 °F 30.2 °F 65% 30.33 in 10.0 mi WSW 4.6 mph - N/A   Clear
7:15 PM 41.0 °F 38.0 °F 30.2 °F 65% 30.33 in 10.0 mi West 4.6 mph - N/A   Clear
7:35 PM 41.0 °F 37.1 °F 30.2 °F 65% 30.33 in 10.0 mi WSW 5.8 mph - N/A   Clear
7:55 PM 41.0 °F 37.1 °F 30.2 °F 65% 30.34 in 10.0 mi WSW 5.8 mph - N/A   Clear
8:15 PM 41.0 °F 37.1 °F 32.0 °F 70% 30.33 in 10.0 mi WSW 5.8 mph - N/A   Clear
8:35 PM 41.0 °F 37.1 °F 32.0 °F 70% 30.34 in 10.0 mi WSW 5.8 mph - N/A   Clear
8:55 PM 41.0 °F 38.0 °F 30.2 °F 65% 30.34 in 10.0 mi West 4.6 mph - N/A   Clear
9:15 PM 41.0 °F 38.0 °F 32.0 °F 70% 30.34 in 10.0 mi West 4.6 mph - N/A   Clear
9:35 PM 41.0 °F 37.1 °F 30.2 °F 65% 30.34 in 10.0 mi West 5.8 mph - N/A   Clear
9:55 PM 39.2 °F 35.0 °F 32.0 °F 75% 30.34 in 10.0 mi West 5.8 mph - N/A   Clear
10:15 PM 39.2 °F 35.0 °F 32.0 °F 75% 30.34 in 10.0 mi West 5.8 mph - N/A   Clear
10:35 PM 39.2 °F 34.2 °F 32.0 °F 75% 30.34 in 10.0 mi WSW 6.9 mph - N/A   Clear
10:55 PM 39.2 °F 35.0 °F 32.0 °F 75% 30.34 in 10.0 mi WSW 5.8 mph - N/A   Clear
11:15 PM 39.2 °F 34.2 °F 32.0 °F 75% 30.34 in 10.0 mi WSW 6.9 mph - N/A   Clear
11:35 PM 39.2 °F 35.0 °F 32.0 °F 75% 30.33 in 10.0 mi WSW 5.8 mph - N/A   Clear
11:55 PM 39.2 °F 35.0 °F 32.0 °F 75% 30.33 in 10.0 mi WSW 5.8 mph - N/A   Clear